Location: Knowlton
(51.2333°N, 1.2667°E)
Time: 17:24:53
(UTC+00:00)

LilacSat-2 - Visible Passes

Search period start: 03 December 2021 00:00
Search period end: 13 December 2021 00:00
Orbit: 511 x 532 km, 97.5° (Epoch: 03 December)

Date Brightness Start Highest point End Pass type
(mag) Time Alt. Az. Time Alt. Az. Time Alt. Az.
03 Dec ? 05:20:20 10° NNE 05:23:54 34° E 05:27:25 10° SSE visible
03 Dec ? 06:54:44 10° N 06:57:58 26° WNW 07:01:10 10° WSW visible
03 Dec ? 17:40:57 10° SSW 17:44:01 23° W 17:47:07 10° NW visible
04 Dec ? 05:07:34 10° NE 05:10:50 25° E 05:14:05 10° SSE visible
04 Dec ? 06:41:34 10° N 06:45:04 33° WNW 06:48:33 10° SW visible
04 Dec ? 17:27:33 10° SSW 17:30:56 31° W 17:34:23 10° NNW visible
05 Dec ? 04:54:55 10° NE 04:57:45 19° E 05:00:34 10° SE visible
05 Dec ? 06:28:27 10° N 06:32:09 45° WNW 06:35:50 10° SW visible
05 Dec ? 17:14:17 10° S 17:17:54 43° W 17:21:34 10° NNW visible
06 Dec ? 04:42:27 10° NE 04:44:38 14° E 04:46:49 10° ESE visible
06 Dec ? 06:15:23 10° N 06:19:12 62° WNW 06:23:01 10° SSW visible
06 Dec ? 17:01:08 10° S 17:04:53 60° W 17:08:40 10° NNW visible
07 Dec ? 04:30:34 10° ENE 04:31:30 11° E 04:32:25 10° E visible
07 Dec ? 06:02:21 10° NNE 06:06:15 85° WNW 06:10:06 10° SSW visible
07 Dec ? 16:48:05 10° SSE 16:51:52 83° W 16:55:43 10° NNW visible
08 Dec ? 05:49:23 10° NNE 05:53:15 70° ESE 05:57:06 10° S visible
08 Dec ? 16:35:07 10° SSE 16:38:53 72° ENE 16:42:43 10° N visible
08 Dec ? 18:11:57 10° WSW 18:13:33 12° W 18:15:10 10° WNW visible
09 Dec ? 05:36:27 10° NNE 05:40:14 50° E 05:44:00 10° S visible
09 Dec ? 16:22:14 10° SSE 16:25:56 52° ENE 16:29:40 10° N visible
09 Dec ? 17:57:57 10° SW 18:00:25 16° W 18:02:55 10° NW visible
10 Dec ? 05:23:34 10° NNE 05:27:12 37° E 05:30:47 10° SSE visible
10 Dec ? 06:58:04 10° N 07:01:13 24° WNW 07:04:22 10° WSW visible
10 Dec ? 17:44:18 10° SW 17:47:18 22° W 17:50:20 10° NW visible
11 Dec ? 05:10:46 10° NE 05:14:08 27° E 05:17:28 10° SSE visible
11 Dec ? 06:44:52 10° N 06:48:19 31° WNW 06:51:45 10° SW visible
11 Dec ? 17:30:52 10° SSW 17:34:13 29° W 17:37:37 10° NNW visible
12 Dec ? 04:58:04 10° NE 05:01:02 21° E 05:03:59 10° SE visible
12 Dec ? 06:31:43 10° N 06:35:24 42° WNW 06:39:02 10° SW visible
12 Dec ? 17:17:33 10° SSW 17:21:09 40° W 17:24:47 10° NNW visible
